User: anonymous   Login
Location: Breitenfeld
(46.8500°N, 15.6333°E)
Time: 11:01:14
(UTC+00:00)
Language:

COSMOS 2251 DEB - Orbit

View from above orbital plane
View from above orbital plane
View from above satellite
View from above satellite

Ground track
Ground track

The orbit data is extracted from the following two-line orbital elements,

1 34064U 93036KB  21296.11619451  .00000316  00000-0  11802-3 0  9991
2 34064  74.0349 176.9194 0025378 254.5242 256.4618 14.35744586664221
Epoch (UTC): 23 October 2021 02:47:19
Eccentricity: 0.0025378
inclination: 74.0349°
perigee height: 754 km
apogee height: 791 km
right ascension of ascending node: 176.9194°
argument of perigee: 254.5242°
revolutions per day: 14.35744586
mean anomaly at epoch: 256.4618°
orbit number at epoch: 66422

The dashed part of the orbit path shows where the satellite is in the earth's shadow,  

DLR